#timestamp,LO_Frequency,Hit 
1499914815.5,286047059.2,N
1499914835.3,286047056.4,N
1499914855.1,286047053.8,N
1499914875.9,286047055.2,N
1499914895.7,286047056.8,N
1499914915.5,286047057.1,N
1499914935.4,286047056.8,N
1499914955.2,286047057.4,N
1499914975.0,286047060.1,N
1499914975.9,286047060.1,N
1499914995.8,286047062.0,N
1499915015.6,286047062.7,N
1499915035.4,286047062.9,N
1499915055.2,286047060.1,N
1499915075.1,286047055.9,N
1499915076.0,286047055.9,N
1499915095.8,286047063.3,N
1499915115.6,286047068.6,N
1499915135.5,286047065.1,N
1499915155.3,286047058.3,N
1499915175.1,286047060.0,N
1499915195.9,286047059.0,N
1499915215.7,286047058.5,N
1499915235.5,286047056.0,N
1499915255.4,286047062.0,N
1499915275.2,286047059.4,N
1499915295.0,286047056.8,N
1499915295.9,286047056.8,N
1499915315.8,286047063.6,N
1499915335.6,286047076.7,N
1499915355.4,286047081.8,N
1499915375.3,286047078.2,N
1499915395.1,286047076.2,N
1499915396.0,286047076.2,N
1499915415.8,286047072.4,N
1499915435.7,286047068.7,N
1499915455.5,286047074.1,N
1499915475.3,286047067.4,N
1499915495.1,286047061.6,N
1499915515.9,286047056.0,N
1499915535.7,286047053.0,N
1499915555.5,286047052.4,N
1499915575.4,286047051.9,N
1499915595.2,286047049.6,N
1499915615.0,286047047.2,N
1499915615.9,286047047.2,N
1499915635.8,286047047.1,N
1499915655.6,286047047.9,N
1499915675.4,286047049.2,N
1499915695.3,286047046.1,N
1499915715.1,286047061.4,N
1499915716.0,286047061.4,N
1499915735.8,286047063.8,N
1499915755.7,286047064.1,N
1499915775.5,286047070.0,N
1499915795.3,286047073.1,N
1499915815.2,286047079.4,N
1499915835.9,286047079.8,N
1499915855.7,286047079.3,N
1499915875.6,286047072.3,N
1499915895.4,286047065.3,N
1499915915.2,286047061.1,N
1499915935.0,286047057.8,N
1499915935.9,286047057.8,N
1499915955.8,286047057.0,N
1499915975.6,286047056.3,N
1499915995.4,286047055.7,N
1499916015.3,286047056.8,N
1499916035.1,286047062.7,N
1499916055.8,286047066.9,N
1499916075.7,286047071.2,N
1499916095.5,286047072.8,N
1499916115.3,286047068.6,N
1499916135.2,286047072.7,N
1499916155.9,286047071.1,N
1499916175.7,286047065.3,N
1499916195.6,286047064.7,N
1499916215.4,286047064.6,N
1499916235.2,286047060.0,N
1499916255.0,286047055.1,N
1499916256.0,286047055.1,N
1499916275.8,286047059.4,N
1499916295.6,286047061.1,N
1499916315.4,286047063.5,N
1499916335.3,286047059.0,N
1499916355.1,286047062.5,N
1499916375.8,286047063.4,N
1499916395.7,286047056.6,N
1499916415.5,286047055.3,N
1499916435.3,286047052.0,N
1499916455.2,286047050.7,N
1499916475.9,286047049.9,N
1499916495.7,286047048.7,N
1499916515.6,286047047.3,N
1499916535.4,286047045.6,N
1499916555.2,286047042.1,N
1499916575.1,286047044.2,N
1499916576.0,286047044.2,N
1499916595.8,286047045.7,N
1499916615.4,286047037.6,N
1499916635.2,286047035.2,N
1499916655.0,286047037.1,N
1499916656.0,286047037.1,N
1499916675.8,286047035.0,N
1499916695.6,286047038.4,N
1499916715.4,286047038.8,N
1499916735.3,286047038.8,N
1499916755.1,286047042.2,N
1499916775.8,286047047.3,N
1499916795.3,286047044.5,N
1499916815.2,286047046.5,N
1499916835.0,286047044.9,N
1499916835.9,286047044.9,N
1499916855.7,286047042.5,N
1499916875.6,286047044.1,N
1499916895.4,286047042.7,N
1499916915.2,286047047.2,N
1499916935.1,286047057.1,N
1499916936.0,286047057.1,N
1499916955.8,286047064.2,N
1499916975.6,286047063.7,N
1499916995.7,286047068.3,N
1499917015.5,286047066.5,N
1499917035.8,286047063.9,N
1499917055.6,286047061.7,N
1499917075.5,286047058.9,N
1499917095.3,286047057.8,N
1499917115.1,286047054.6,N
1499917135.9,286047053.0,N
1499917155.7,286047055.1,N
1499917175.5,286047050.9,N
1499917195.3,286047057.4,N
1499917215.2,286047059.4,N
1499917235.0,286047059.2,N
1499917235.9,286047059.2,N
1499917255.7,286047060.5,N
1499917275.6,286047062.7,N
1499917295.4,286047059.0,N
1499917315.2,286047063.9,N
1499917335.1,286047065.6,N
1499917336.0,286047065.6,N
1499917355.8,286047064.3,N
1499917375.6,286047065.9,N
1499917395.1,286047061.4,N
1499917415.9,286047054.1,N
1499917435.7,286047051.8,N
1499917455.5,286047048.1,N
1499917475.4,286047047.4,N
1499917495.2,286047046.0,N
1499917515.0,286047045.8,N
1499917515.9,286047045.8,N
1499917535.8,286047050.0,N
1499917555.6,286047052.7,N
1499917575.4,286047055.8,N
1499917595.2,286047063.1,N
1499917615.1,286047067.2,N
1499917616.0,286047067.2,N
1499917635.8,286047066.2,N
1499917655.6,286047067.5,N
1499917675.5,286047064.9,N
1499917695.3,286047065.8,N
1499917715.1,286047064.6,N
1499917735.9,286047064.0,N
1499917755.7,286047072.6,N
1499917775.5,286047071.8,N
1499917795.4,286047069.3,N
1499917815.2,286047067.3,N
1499917835.0,286047066.1,N
1499917835.9,286047066.1,N
1499917855.8,286047061.1,N
1499917875.6,286047063.9,N
1499917895.4,286047069.4,N
1499917915.3,286047070.6,N
1499917935.1,286047069.1,N
1499917936.0,286047069.1,N
1499917955.8,286047067.3,N
1499917975.7,286047064.8,N
1499917995.5,286047063.5,N
1499918015.3,286047051.0,N
1499918035.1,286047049.9,N
1499918055.9,286047050.0,N
1499918075.7,286047048.7,N
1499918095.5,286047046.6,N
1499918115.5,286047049.2,N
1499918135.4,286047050.9,N
1499918155.2,286047059.5,N
1499918175.0,286047059.3,N
1499918175.9,286047059.3,N
1499918195.8,286047056.7,N
1499918215.6,286047059.3,N
1499918235.4,286047071.1,N
1499918255.3,286047075.3,N
1499918275.1,286047080.8,N
1499918276.0,286047080.8,N
1499918295.8,286047084.7,N
1499918315.6,286047083.9,N
1499918335.5,286047076.3,N
1499918355.3,286047069.2,N
1499918375.1,286047076.8,N
1499918395.9,286047078.4,N
